Location: Beaver Brook Station
(42.3793°N, 71.2203°W)
Time: 05:53:02
(UTC+00:00)

X-37B - Pass Details

Date: 25 January 2021
Orbit: 383 x 391 km, 45.0° (Epoch: 27 February)

Event Time Altitude Azimuth Distance (km) Brightness Sun altitude
Rises 23:38:14 0° 283° (WNW) 2,275 5.7 -19.9°
Reaches altitude 10° 23:40:20 10° 288° (WNW) 1,420 4.4 -20.3°
Enters shadow 23:42:57 47° 328° (NNW) 527 1.3 -20.8°
